926356001 Weather Reports


Display with metric or nautical units.
time (UTC)temp
F
wind
direction
speed
MPH
gust
MPH
rain 1hr
in
rain 24hr
in
rain mn
in
humidity
%
barometer
mb
20200707151510 64 273 7.0 14.0 0.00 0.00 0.00 63 1019.1
20200707150010 65 277 6.0 14.0 0.00 0.00 0.00 62 1019.1
20200707143007 65 248 7.0 14.0 0.00 0.00 0.00 61 1019.3
20200707141518 66 233 6.0 12.0 0.00 0.00 0.00 62 1019.4
20200707140013 66 291 5.0 14.0 0.00 0.00 0.00 62 1019.4
20200707134536 66 285 6.0 12.0 0.00 0.00 0.00 62 1019.5
20200707130033 65 287 7.0 13.0 0.00 0.00 0.00 63 1019.8
20200707124509 65 262 7.0 13.0 0.00 0.00 0.00 61 1019.9
20200707123015 65 244 6.0 12.0 0.00 0.00 0.00 61 1020.0
20200707114502 64 281 4.0 13.0 0.00 0.00 0.00 65 1019.9
20200707113005 65 295 6.0 15.0 0.00 0.00 0.00 65 1019.9
20200707101520 64 277 6.0 14.0 0.00 0.00 0.00 63 1020.0
20200707100026 63 303 8.0 14.0 0.00 0.00 0.00 64 1020.1
20200707084516 62 298 6.0 15.0 0.00 0.00 0.00 70 1020.1
20200707083003 61 286 6.0 14.0 0.00 0.00 0.00 70 1020.2
20200707073019 61 173 5.0 15.0 0.00 0.00 0.00 73 1019.8
20200707071553 62 282 5.0 15.0 0.00 0.00 0.00 73 1019.9
20200707064506 60 282 4.0 11.0 0.00 0.00 0.00 81 1019.8
20200707061503 59 219 3.0 8.0 0.00 0.00 0.00 87 1019.7
20200707053011 56 156 2.0 5.0 0.00 0.00 0.00 90 1019.7
20200707051502 56 173 1.0 3.0 0.00 0.00 0.00 91 1019.9
20200707044506 55 178 0.0 2.0 0.00 0.00 0.00 91 1020.1
20200707033008 54 178 1.0 3.0 0.00 0.00 0.00 91 1020.3
20200707031501 54 178 1.0 3.0 0.00 0.00 0.00 91 1020.5
20200707024505 54 178 1.0 2.0 0.00 0.00 0.00 91 1020.7
20200707021505 53 178 1.0 3.0 0.00 0.00 0.00 91 1021.0
20200707013006 53 178 2.0 4.0 0.00 0.00 0.00 92 1021.2
20200707010010 52 207 2.0 3.0 0.00 0.00 0.00 91 1021.5
20200707001509 52 256 0.0 1.0 0.00 0.00 0.00 89 1021.6
20200706234543 52 256 0.0 1.0 0.00 0.00 0.00 88 1021.8
20200706231517 53 256 0.0 1.0 0.00 0.00 0.00 88 1021.9
20200706223007 54 278 0.0 3.0 0.00 0.00 0.00 86 1022.0
20200706213019 55 288 0.0 1.0 0.00 0.00 0.00 83 1022.0
20200706210012 56 288 0.0 2.0 0.00 0.00 0.00 81 1021.8
20200706203010 57 329 0.0 4.0 0.00 0.00 0.00 79 1021.5
20200706194501 58 300 3.0 8.0 0.00 0.00 0.00 76 1021.3
20200706193029 58 333 3.0 13.0 0.00 0.00 0.00 76 1021.2
20200706191503 59 318 6.0 11.0 0.00 0.00 0.00 75 1021.1